Flag for Sao Tome and Principe Weather past 2 weeks in São Tomé, Sao Tome and Principe

Now
77 °F

Passing clouds.


Feels Like: 78 °F
Forecast: N/A
Wind: 5 mph from West

Location: S. Tome


UV Index: N/A

Visibility: N/A


Pressure: 29.86 "Hg

Humidity: 94%

Dew point: 75 °F

Location of São ToméLocation

Historic Weather in São Tomé

°F

São Tomé temperature yesterday

Maximum temperature yesterday: 81 °F (at 9:00 AM)
Minimum temperature yesterday: 75 °F (at 12:00 PM)
Average temperature yesterday: 78 °F

Past Weeks' High & Low Weather Summary

 TemperatureHumidityPressure
High88 °F (Apr 11, 12:00 PM)100% (Apr 13, 6:00 AM)29.95 "Hg (Apr 13, 6:00 AM)
Low68 °F (Apr 22, 9:00 AM)66% (Apr 15, 10:00 AM)29.71 "Hg (Apr 18, 6:00 PM)
Average81 °F85%29.84 "Hg
* Reported Apr 9 8:00 PM — Apr 24 8:00 PM, São Tomé, Weather by CustomWeather, © 2014

Note: Actual official high and low records may vary slightly from our data, if they occured in-between our weather recording intervals... More about our weather records

Advertising

Historic Weather Conditions — Data for Previous 24 hours

 ConditionsComfort  
Time TempWeatherWind HumidityBarometerVisibility
8:00 PM
Apr 24
79 °FPassing clouds.5 mph89%29.83 "HgN/A
7:00 PM79 °FPassing clouds.6 mph84%29.80 "HgN/A
6:00 PM81 °FPassing clouds.3 mph79%29.77 "HgN/A
5:00 PM82 °FBroken clouds.5 mph74%29.77 "HgN/A
4:00 PM84 °FScattered clouds.7 mph74%29.77 "HgN/A
2:00 PM86 °FBroken clouds.7 mph70%29.80 "HgN/A
1:00 PM84 °FScattered clouds.7 mph74%29.80 "HgN/A
12:00 PM86 °FScattered clouds.12 mph75%29.83 "HgN/A
11:00 AM86 °FScattered clouds.12 mph75%29.86 "HgN/A
10:00 AM86 °FScattered clouds.7 mph75%29.86 "HgN/A
9:00 AM86 °FScattered clouds.3 mph75%29.86 "HgN/A
8:00 AM82 °FScattered clouds.3 mph74%29.86 "HgN/A
4:00 AM75 °FPassing clouds.5 mph94%29.80 "HgN/A
3:00 AM75 °FPassing clouds.7 mph89%29.80 "HgN/A
1:00 AM75 °FPassing clouds.5 mph89%29.83 "HgN/A
12:00 AM73 °FPassing clouds.5 mph94%29.86 "HgN/A
10:00 PM
Apr 23
75 °FPassing clouds.No wind94%29.86 "HgN/A
Weather by CustomWeather, © 2014

See weather overview